Woodland, NC

4:53 AM EDT on September 29, 2016 (GMT -0400)
Tri County

Weather History for KASJ - January, 2013

Change the Weather History Date:

Friday, January 4, 2013

  Actual Average (KEMV) Record (KEMV)
Temperature  
Mean Temperature 36 °F -  
Max Temperature 47 °F 52 °F 75 °F (2004)
Min Temperature 25 °F 29 °F 14 °F (2012)
Degree Days  
Heating Degree Days 30    
Moisture  
Dew Point 26 °F    
Average Humidity 68    
Maximum Humidity 93    
Minimum Humidity 42    
Precipitation  
Precipitation 0.00 in - - ()
Sea Level Pressure  
Sea Level Pressure 30.24 in    
Wind  
Wind Speed 0 mph (West)    
Max Wind Speed 6 mph    
Max Gust Speed -    
Visibility 9 miles    
Events      
Averages and records for this station are not official NWS values.
T = Trace of Precipitation, MM = Missing Value Source: NWS Daily Summary

Daily Weather History Graph

Daily Weather History Graph

Search for Another Location

Airport or City:

Trip Planner

Search our weather history database for the weather conditions in past years. The results will help you decide how hot, cold, wet, or windy it might be!

Date:

Astronomy

Jan. 04, 2013 Rise Set
Actual Time 7:20 AM EST 5:07 PM EST
Civil Twilight 6:52 AM EST 5:35 PM EST
Nautical Twilight 6:19 AM EST 6:07 PM EST
Astronomical Twilight 5:48 AM EST 6:39 PM EST
Moon No Moon Rise 11:15 AM EST (1/4)
Length of Visible Light 10h 43m
Length of Day
9h 46m
Waning Gibbous, 55% of the Moon is Illuminated
Jan 4
Waning Gibbous
Jan 4
Last Quarter
Jan 11
New
Jan 18
First Quarter
Jan 26
Full

Hourly Weather History & Observations

Time (EST) Temp. Windchill Dew Point Humidity Pressure Visibility Wind Dir Wind Speed Gust Speed Precip Events Conditions
12:15 AM 27.9 °F - 25.7 °F 92% 30.25 in 5.0 mi Calm Calm - N/A   Clear
12:35 AM 27.9 °F - 25.7 °F 92% 30.24 in 7.0 mi Calm Calm - N/A   Clear
12:55 AM 27.1 °F - 25.3 °F 93% 30.24 in 7.0 mi Calm Calm - N/A   Clear
1:15 AM 27.9 °F - 25.7 °F 92% 30.24 in 5.0 mi Calm Calm - N/A   Clear
1:35 AM 27.7 °F - 25.5 °F 92% 30.24 in 7.0 mi Calm Calm - N/A   Clear
1:55 AM 26.4 °F - 24.4 °F 92% 30.24 in 7.0 mi Calm Calm - N/A   Clear
2:15 AM 26.8 °F - 24.8 °F 92% 30.24 in 7.0 mi Calm Calm - N/A   Clear
2:35 AM 25.5 °F - 23.5 °F 92% 30.24 in 5.0 mi Calm Calm - N/A   Clear
2:55 AM 27.9 °F - 25.7 °F 92% 30.25 in 5.0 mi Calm Calm - N/A   Clear
3:15 AM 25.3 °F - 23.4 °F 92% 30.26 in 5.0 mi Calm Calm - N/A   Clear
3:35 AM 25.3 °F - 23.4 °F 92% 30.26 in 5.0 mi Calm Calm - N/A   Clear
3:55 AM 26.4 °F - 24.4 °F 92% 30.26 in 3.0 mi Calm Calm - N/A   Clear
4:15 AM 25.9 °F - 23.9 °F 92% 30.25 in 2.5 mi Calm Calm - N/A   Clear
6:35 AM 26.2 °F - 24.1 °F 92% 30.27 in 7.0 mi Calm Calm - N/A   Clear
6:55 AM 25.3 °F - 23.0 °F 91% 30.27 in 7.0 mi Calm Calm - N/A   Clear
7:15 AM 25.3 °F - 23.0 °F 91% 30.27 in 7.0 mi Calm Calm - N/A   Clear
7:35 AM 25.3 °F - 23.0 °F 91% 30.28 in 7.0 mi Calm Calm - N/A   Clear
7:55 AM 25.3 °F - 23.0 °F 91% 30.28 in 7.0 mi Calm Calm - N/A   Clear
8:35 AM 30.2 °F - 27.5 °F 90% 30.28 in 10.0 mi Calm Calm - N/A   Clear
8:55 AM 32.2 °F - 29.3 °F 89% 30.28 in 10.0 mi Calm Calm - N/A   Clear
9:15 AM 32.9 °F - 28.8 °F 85% 30.28 in 10.0 mi Calm Calm - N/A   Clear
9:35 AM 35.1 °F - 29.5 °F 80% 30.29 in 10.0 mi Calm Calm - N/A   Clear
9:55 AM 36.3 °F - 29.3 °F 76% 30.30 in 10.0 mi Calm Calm - N/A   Clear
10:15 AM 37.6 °F 35.1 °F 27.3 °F 66% 30.29 in 10.0 mi West 3.5 mph - N/A   Clear
10:35 AM 37.6 °F - 25.7 °F 62% 30.29 in 10.0 mi Calm Calm - N/A   Clear
10:55 AM 38.3 °F - 25.9 °F 61% 30.28 in 4.0 mi Calm Calm - N/A   Haze
11:15 AM 39.7 °F 37.6 °F 27.1 °F 61% 30.28 in 10.0 mi NW 3.5 mph - N/A   Clear
11:35 AM 40.8 °F 38.8 °F 26.4 °F 57% 30.27 in 10.0 mi West 3.5 mph - N/A   Clear
11:55 AM 43.2 °F - 28.0 °F 55% 30.26 in 10.0 mi Calm Calm - N/A   Clear
12:15 PM 45.1 °F - 30.6 °F 57% 30.24 in 10.0 mi Calm Calm - N/A   Clear
12:35 PM 45.1 °F 43.7 °F 28.0 °F 51% 30.22 in 10.0 mi WSW 3.5 mph - N/A   Clear
12:55 PM 45.1 °F - 27.0 °F 49% 30.21 in 10.0 mi Calm Calm - N/A   Clear
1:15 PM 45.1 °F 42.0 °F 25.9 °F 47% 30.19 in 10.0 mi West 5.8 mph - N/A   Clear
1:35 PM 45.1 °F 43.7 °F 26.4 °F 48% 30.19 in 10.0 mi West 3.5 mph - N/A   Clear
1:55 PM 45.1 °F - 25.7 °F 47% 30.18 in 10.0 mi Calm Calm - N/A   Clear
2:15 PM 45.1 °F - 24.6 °F 45% 30.17 in 10.0 mi Calm Calm - N/A   Clear
2:35 PM 46.8 °F - 26.2 °F 45% 30.18 in 10.0 mi Calm Calm - N/A   Clear
2:55 PM 46.4 °F 45.2 °F 24.8 °F 43% 30.18 in 10.0 mi WSW 3.5 mph - N/A   Clear
3:15 PM 46.4 °F - 24.4 °F 42% 30.19 in 10.0 mi Calm Calm - N/A   Clear
3:35 PM 46.2 °F - 25.3 °F 44% 30.18 in 10.0 mi Calm Calm - N/A   Clear
3:55 PM 45.1 °F - 26.4 °F 48% 30.18 in 10.0 mi Calm Calm - N/A   Clear
4:15 PM 45.1 °F - 25.7 °F 47% 30.18 in 10.0 mi Calm Calm - N/A   Clear
4:35 PM 45.1 °F - 26.2 °F 48% 30.18 in 10.0 mi Calm Calm - N/A   Clear
4:55 PM 42.8 °F - 26.6 °F 53% 30.19 in 10.0 mi Calm Calm - N/A   Clear
5:15 PM 38.5 °F - 27.0 °F 63% 30.19 in 10.0 mi Calm Calm - N/A   Clear
5:55 PM 40.1 °F - 28.2 °F 63% 30.20 in 10.0 mi Calm Calm - N/A   Clear
6:15 PM 40.1 °F - 28.6 °F 63% 30.20 in 10.0 mi Calm Calm - N/A   Clear
6:35 PM 39.2 °F - 29.1 °F 67% 30.20 in 10.0 mi Calm Calm - N/A   Clear
6:55 PM 38.8 °F - 29.3 °F 69% 30.21 in 10.0 mi Calm Calm - N/A   Clear
7:15 PM 39.0 °F - 29.7 °F 69% 30.21 in 10.0 mi Calm Calm - N/A   Clear
7:35 PM 39.0 °F - 29.1 °F 68% 30.22 in 10.0 mi Calm Calm - N/A   Clear
7:55 PM 39.4 °F - 28.0 °F 64% 30.22 in 10.0 mi Calm Calm - N/A   Clear
8:15 PM 40.1 °F - 26.2 °F 58% 30.23 in 10.0 mi Calm Calm - N/A   Clear
8:35 PM 40.1 °F - 24.8 °F 54% 30.24 in 10.0 mi Calm Calm - N/A   Clear
8:55 PM 40.3 °F - 25.0 °F 54% 30.24 in 10.0 mi Calm Calm - N/A   Clear
9:15 PM 40.8 °F - 25.2 °F 54% 30.24 in 10.0 mi Calm Calm - N/A   Clear
9:35 PM 40.1 °F - 23.7 °F 52% 30.24 in 10.0 mi Calm Calm - N/A   Clear
9:55 PM 38.7 °F - 24.3 °F 56% 30.24 in 10.0 mi Calm Calm - N/A   Clear
10:15 PM 36.7 °F - 24.4 °F 61% 30.24 in 10.0 mi Calm Calm - N/A   Clear
10:35 PM 36.5 °F - 25.0 °F 63% 30.25 in 10.0 mi Calm Calm - N/A   Clear
10:55 PM 35.4 °F - 24.4 °F 64% 30.25 in 10.0 mi Calm Calm - N/A   Clear
11:15 PM 35.2 °F - 23.5 °F 62% 30.25 in 10.0 mi Calm Calm - N/A   Clear
11:35 PM 35.1 °F - 23.5 °F 63% 30.25 in 10.0 mi Calm Calm - N/A   Clear
11:55 PM 35.1 °F - 22.3 °F 60% 30.26 in 10.0 mi Calm Calm - N/A   Clear